Location: Eisingen in Unterfranken
(49.7591°N, 9.8347°E)
Time: 16:31:37
(UTC+02:00)

ISS - Visible Passes

Search period start: 13 July 2025 00:00
Search period end: 23 July 2025 00:00
Orbit: 413 x 417 km, 51.6° (Epoch: 13 July)

Date Brightness Start Highest point End Pass type
(mag) Time Alt. Az. Time Alt. Az. Time Alt. Az.
13 Jul -3.4 00:23:50 10° WNW 00:27:11 64° N 00:30:31 10° E visible
13 Jul -3.4 02:00:37 10° WNW 02:03:20 46° WSW 02:03:20 46° WSW visible
13 Jul -3.2 23:34:56 10° W 23:38:15 60° N 23:41:35 10° E visible
14 Jul -3.9 01:11:44 10° WNW 01:15:04 74° SSW 01:15:19 69° SSE visible
14 Jul -3.2 22:45:59 10° W 22:49:19 61° N 22:52:39 10° ENE visible
15 Jul -3.8 00:22:50 10° WNW 00:26:12 85° NNE 00:27:33 33° ESE visible
15 Jul -1.4 01:59:47 10° W 02:00:22 14° W 02:00:22 14° W visible
15 Jul -3.4 21:57:02 10° W 22:00:22 67° N 22:03:42 10° ENE visible
15 Jul -3.6 23:33:55 10° WNW 23:37:16 71° NNE 23:39:56 15° E visible
16 Jul -2.5 01:10:43 10° W 01:12:45 29° WSW 01:12:45 29° WSW visible
16 Jul -3.3 22:44:58 10° WNW 22:48:18 63° N 22:51:38 10° E visible
17 Jul -3.8 00:21:45 10° WNW 00:25:02 57° SSW 00:25:11 56° SSW visible
17 Jul -3.9 23:32:47 10° WNW 23:36:08 79° SSW 23:37:41 29° ESE visible
18 Jul -1.3 01:09:57 10° W 01:10:31 13° W 01:10:31 13° W visible
18 Jul -3.7 22:43:49 10° WNW 22:47:10 82° NNE 22:50:12 12° ESE visible
19 Jul -2.4 00:20:43 10° W 00:23:03 27° SW 00:23:03 27° SW visible
19 Jul -3.3 23:31:37 10° WNW 23:34:48 43° SSW 23:35:35 35° S visible
20 Jul -3.7 22:42:34 10° WNW 22:45:53 62° SSW 22:48:10 18° SE visible
21 Jul -1.3 00:20:11 10° WSW 00:21:01 13° WSW 00:21:01 13° WSW visible
21 Jul -3.8 21:53:33 10° WNW 21:56:54 84° SSW 22:00:15 10° ESE visible
21 Jul -2.2 23:30:38 10° W 23:33:16 22° SW 23:33:37 21° SSW visible
22 Jul -2.7 22:41:22 10° W 22:44:24 32° SSW 22:46:15 18° SSE visible
